Regional Weather Roundup
Issued by NWS

Home | Current Version | Previous Version | Graphics & Text | Print | Product List | Glossary On
Versions: 1 2 3 4 5 6 7 8 9 10 11 12 13 14 15 16 17 18 19 20 21 22 23 24 25 26 27 28 29 30 31 32 33 34 35 36 37 38 39 40 41 42 43 44 45 46 47 48 49 50
000
ASUS43 KIND 222009
RWRIN

WEATHER ROUNDUP FOR INDIANA
NATIONAL WEATHER SERVICE INDIANAPOLIS IN
400 PM EDT WED OCT 22 2014

NOTE: "FAIR" INDICATES FEW OR NO CLOUDS BELOW 12,000 FEET WITH NO
SIGNIFICANT WEATHER AND/OR OBSTRUCTIONS TO VISIBILITY.

* - STATION DOES NOT REPORT WEATHER SUCH AS PRECIPITATION OR FOG.

+ - STATION NOT QUALITY CONTROLLED BY THE NATIONAL WEATHER SERVICE.
    USE DATA WITH CAUTION...ESPECIALLY DEWPOINT AND RELATIVE
    HUMIDITY OBSERVATIONS.

INZ001>003-010>013-019-020-222100-
NORTHWEST INDIANA

CITY           SKY/WX    TMP DP  RH WIND       PRES   REMARKS
GARY /AIRPORT/ SUNNY     54  36  50 NE9       30.33F
KNOX *+        SUNNY     56  29  35 N3        30.29F
LA PORTE +     SUNNY     58  27  30 NE5       30.31S
MICHIGAN CITY+ SUNNY     50  34  53 N8        30.32S
MONTICELLO +   SUNNY     58  35  41 CALM      30.28S
RENSSELAER +   SUNNY     57  32  38 N5        30.29F
VALPARAISO     SUNNY     55  34  45 N9        30.30F

$$

LMZ046-743>745-222100-
SOUTHERN LAKE MICHIGAN

STATION/POSITION TIME  TEMP WIND        PRES
                       AIR  DIR/SP/G
                 (UTC) (F)  (DEG/KT/KT) (MB)
MICHIGAN CITY    2000   49  340/ 10/ 12   N/A

$$

INZ004-005-014>016-021>024-222100-
NORTH CENTRAL INDIANA

CITY           SKY/WX    TMP DP  RH WIND       PRES   REMARKS
ELKHART        SUNNY     54  37  54 SE5       30.31
GOSHEN         SUNNY     49  40  71 NE5       30.32S
LOGANSPORT +   SUNNY     57  36  44 CALM      30.29F
PERU/GRISSOM   SUNNY     57  42  58 VRB2      30.28F
ROCHESTER +    SUNNY     59  36  41 N7        30.30S
SOUTH BEND     SUNNY     57  31  37 CALM      30.31F
WARSAW +       SUNNY     52  39  62 NE5       30.30F

$$

INZ006>009-017-018-025>027-222100-
NORTHEAST INDIANA

CITY           SKY/WX    TMP DP  RH WIND       PRES   REMARKS
ANGOLA *+      CLOUDY    46  34  61 VRB6      30.31S
AUBURN +       CLOUDY    50  37  62 NE3       30.31F
FORT WAYNE     MOSUNNY   52  41  66 VRB5      30.31F
HUNTINGTON +   SUNNY     55  41  60 NE6       30.28F

$$

INZ028-029-035-036-043>045-051>053-222100-
WEST CENTRAL INDIANA

CITY           SKY/WX    TMP DP  RH WIND       PRES   REMARKS
CRAWFORDSVL +  SUNNY     57  37  47 NE6       30.28
GREENCASTLE +  SUNNY     57  41  54 N7        30.28S
LAFAYETTE      SUNNY     56  37  49 NE3       30.29F
TERRE HAUTE    SUNNY     59  40  49 VRB5      30.27F

$$

INZ030>032-037>040-046>048-054>057-064-065-222100-
CENTRAL INDIANA

CITY           SKY/WX    TMP DP  RH WIND       PRES   REMARKS
ANDERSON       SUNNY     55  39  54 CALM      30.29F
CP ATTERBURY + SUNNY     55  41  58 NE5       30.27F HAZE
COLUMBUS       SUNNY     55  41  58 N7        30.27F
FRANKFORT +    SUNNY     59  39  48 NE7       30.29F
INDIANAPOLIS   MOSUNNY   56  39  53 CALM      30.26F
-EAGLE CREEK   SUNNY     57  40  52 VRB6      30.27F
KOKOMO *+      SUNNY     57  39  51 E6        30.28F
MARION +       SUNNY     55  38  53 E5        30.29S
MT COMFORT *+  SUNNY     57  32  38 N6        30.28F
SHELBYVILLE    SUNNY     58  40  51 N7        30.27F
ZIONSVILLE +   SUNNY     56  38  49 CALM      30.28F HAZE

$$

INZ033-034-041-042-049-050-058-059-222100-
EAST CENTRAL INDIANA

CITY           SKY/WX    TMP DP  RH WIND       PRES   REMARKS
MUNCIE         SUNNY     57  41  55 E6        30.28F

$$

INZ060-061-067>069-081>083-085>088-222100-
SOUTHWEST INDIANA

CITY           SKY/WX    TMP DP  RH WIND       PRES   REMARKS
EVANSVILLE     SUNNY     62  40  44 N12       30.26F
HUNTINGBURG *+ SUNNY     61  43  51 NE5       30.26S
WASHINGTON +   SUNNY     59  41  50 N5        30.26F

$$

INZ062-063-066-070>080-084-089>092-222100-
SOUTH CENTRAL AND SOUTHEAST INDIANA

CITY           SKY/WX    TMP DP  RH WIND       PRES   REMARKS
BEDFORD +      SUNNY     59  37  44 N3        30.26
BLOOMINGTON    SUNNY     59  40  49 NE9       30.26F

$$




USA.gov is the U.S. government's official web portal to all federal, state and local government web resources and services.